This demonstration page uses our WeatherBlox Daily Observations layout. Learn more.

Left ArrowRight Arrow

Hourly Observations for February 25, 2016

Temp ( °F °C ) Dew Point ( °F °C ) Humidity (%) Winds ( mph kmh ) Pressure ( in mb ) Visibility ( mi km ) Precip ( " mm )
12:51 am 00:51 Clear 43 6.1 18 -7.8 37 37 SE 8 13 30.09 1019 10 16.0934 N/A
1:51 am 01:51 Clear 41 5 18 -7.8 39 39 ESE 8 13 30.09 1019 10 16.0934 N/A
2:51 am 02:51 Clear 43 6.1 18 -7.8 37 37 S 3 6 30.08 1019 10 16.0934 N/A
3:51 am 03:51 Clear 40 4.4 19 -7.2 43 43 N N/A 30.09 1019 10 16.0934 N/A
4:51 am 04:51 Clear 33 0.6 16 -8.9 49 49 N N/A 30.11 1020 10 16.0934 N/A
5:51 am 05:51 Clear 39 3.9 19 -7.2 45 45 SSE 9 15 30.12 1020 10 16.0934 N/A
6:51 am 06:51 Clear 43 6.1 19 -7.2 38 38 SE 13 20 30.15 1021 10 16.0934 N/A
7:51 am 07:51 Sunny 44 6.7 19 -7.2 37 37 SE 13 20 30.19 1022 10 16.0934 N/A
8:51 am 08:51 Sunny 49 9.4 20 -6.7 32 32 SSE 10 17 30.2 1023 10 16.0934 N/A
9:51 am 09:51 Sunny 56 13.3 19 -7.2 24 24 ESE 13 20 30.2 1023 10 16.0934 N/A
10:51 am 10:51 Sunny 60 15.6 20 -6.7 21 21 ESE 8 13 30.19 1022 10 16.0934 N/A
11:51 am 11:51 Sunny 64 17.8 20 -6.7 18 18 VRB 7 11 30.16 1022 10 16.0934 N/A
12:51 pm 12:51 Sunny 68 20 19 -7.2 15 15 E 9 15 30.12 1020 10 16.0934 N/A
1:51 pm 13:51 Sunny 71 21.7 17 -8.3 13 13 E 14 22 30.08 1019 10 16.0934 N/A
2:51 pm 14:51 Sunny 72 22.2 16 -8.9 12 12 SE 10 17 30.04 1017 10 16.0934 N/A
3:51 pm 15:51 Sunny 74 23.3 16 -8.9 11 11 S 10 17 30.03 1017 10 16.0934 N/A
4:51 pm 16:51 Sunny 74 23.3 14 -10 10 10 SSE 9 15 30.04 1017 10 16.0934 N/A
5:51 pm 17:51 Sunny 71 21.7 15 -9.4 12 12 S 7 11 30.04 1017 10 16.0934 N/A
6:51 pm 18:51 Clear 62 16.7 15 -9.4 16 16 SE 3 6 30.07 1018 10 16.0934 N/A
7:51 pm 19:51 Clear 57 13.9 14 -10 18 18 SE 5 7 30.09 1019 10 16.0934 N/A
8:51 pm 20:51 Clear 58 14.4 13 -10.6 17 17 E 9 15 30.11 1020 10 16.0934 N/A
9:51 pm 21:51 Clear 54 12.2 15 -9.4 21 21 SSE 10 17 30.12 1020 10 16.0934 N/A
10:51 pm 22:51 Clear 52 11.1 15 -9.4 23 23 SSE 9 15 30.13 1020 10 16.0934 N/A
11:51 pm 23:51 Clear 49 9.4 15 -9.4 26 26 SE 7 11 30.13 1020 10 16.0934 N/A

Powered by AerisWeather